Weather History for Devils Lake, ND

Change the Weather History Date:

Sunday, April 28, 2013

  Actual Average Record
Temperature  
Mean Temperature 45 °F -  
Max Temperature 55 °F 55 °F 91 °F (1952)
Min Temperature 35 °F 36 °F 13 °F (1958)
Degree Days  
Heating Degree Days 20    
Moisture  
Dew Point 36 °F    
Average Humidity 68    
Maximum Humidity 87    
Minimum Humidity 44    
Precipitation  
Precipitation 0.00 in - - ()
Sea Level Pressure  
Sea Level Pressure 29.73 in    
Wind  
Wind Speed 10 mph (WNW)    
Max Wind Speed 22 mph    
Max Gust Speed 29 mph    
Visibility 10 miles    
Events      
Averages and records for this station are not official NWS values.
T = Trace of Precipitation, MM = Missing Value Source: NWS Daily Summary

Daily Weather History Graph

Daily Weather History Graph

Search for Another Location

Airport:

Trip Planner

Search our weather history database for the weather conditions in past years. The results will help you decide how hot, cold, wet, or windy it might be!

Date:

Astronomy

Apr. 28, 2013 Rise Set
Actual Time 6:21 AM CDT 8:45 PM CDT
Civil Twilight 5:47 AM CDT 9:19 PM CDT
Nautical Twilight 5:04 AM CDT 10:03 PM CDT
Astronomical Twilight 4:14 AM CDT 10:53 PM CDT
Moon No Moon Rise 8:31 AM CDT (4/28)
Length of Visible Light 15h 32m
Length of Day
14h 23m
Waning Gibbous, 88% of the Moon is Illuminated
Apr 28
Waning Gibbous
May 2
Last Quarter
May 9
New
May 17
First Quarter
May 24
Full

Hourly Weather History & Observations

Time (CDT) Temp. Windchill Dew Point Humidity Pressure Visibility Wind Dir Wind Speed Gust Speed Precip Events Conditions
12:15 AM 53.6 °F - 37.4 °F 54% 29.65 in 10.0 mi SSW 15.0 mph - N/A   Scattered Clouds
12:35 AM 48.2 °F - 35.6 °F 62% 29.65 in 10.0 mi SW 8.1 mph - N/A   Overcast
12:55 AM 48.2 °F - 37.4 °F 66% 29.64 in 10.0 mi SSW 13.8 mph - N/A   Mostly Cloudy
1:15 AM 48.2 °F - 35.6 °F 62% 29.64 in 10.0 mi SW 9.2 mph - N/A   Partly Cloudy
1:35 AM 48.2 °F - 37.4 °F 66% 29.63 in 10.0 mi SSW 12.7 mph - N/A   Scattered Clouds
1:55 AM 48.2 °F - 35.6 °F 62% 29.65 in 10.0 mi West 8.1 mph - N/A   Overcast
2:15 AM 46.4 °F 41.1 °F 35.6 °F 66% 29.65 in 10.0 mi West 11.5 mph - N/A   Overcast
2:35 AM 46.4 °F 40.4 °F 35.6 °F 66% 29.64 in 10.0 mi SW 13.8 mph - N/A   Overcast
2:55 AM 46.4 °F 45.2 °F 35.6 °F 66% 29.64 in 10.0 mi West 3.5 mph - N/A   Overcast
3:15 AM 44.6 °F - 35.6 °F 71% 29.63 in 10.0 mi Calm Calm - N/A   Overcast
3:35 AM 46.4 °F 41.9 °F 35.6 °F 66% 29.62 in 10.0 mi WSW 9.2 mph - N/A   Overcast
3:55 AM 44.6 °F - 37.4 °F 76% 29.61 in 10.0 mi Calm Calm - N/A   Overcast
4:15 AM 44.6 °F - 37.4 °F 76% 29.60 in 10.0 mi Calm Calm - N/A   Overcast
4:35 AM 42.8 °F - 37.4 °F 81% 29.60 in 10.0 mi Calm Calm - N/A   Overcast
4:55 AM 44.6 °F 40.7 °F 37.4 °F 76% 29.60 in 10.0 mi South 6.9 mph - N/A   Overcast
5:15 AM 42.8 °F - 35.6 °F 76% 29.60 in 10.0 mi Calm Calm - N/A   Mostly Cloudy
5:35 AM 41.0 °F - 35.6 °F 81% 29.59 in 10.0 mi Calm Calm - N/A   Mostly Cloudy
5:55 AM 42.8 °F - 37.4 °F 81% 29.58 in 10.0 mi Calm Calm - N/A   Clear
6:15 AM 42.8 °F - 35.6 °F 76% 29.58 in 10.0 mi Calm Calm - N/A   Clear
6:35 AM 42.8 °F 36.6 °F 33.8 °F 70% 29.59 in 10.0 mi SSW 11.5 mph - N/A   Scattered Clouds
6:55 AM 41.0 °F - 35.6 °F 81% 29.58 in 10.0 mi Calm Calm - N/A   Overcast
7:15 AM 42.8 °F 36.2 °F 35.6 °F 76% 29.59 in 10.0 mi SSW 12.7 mph - N/A   Mostly Cloudy
7:35 AM 48.2 °F - 35.6 °F 62% 29.61 in 10.0 mi WSW 13.8 mph - N/A   Partly Cloudy
7:55 AM 46.4 °F 43.5 °F 37.4 °F 71% 29.61 in 10.0 mi WNW 5.8 mph - N/A   Clear
8:15 AM 46.4 °F 41.9 °F 37.4 °F 71% 29.62 in 10.0 mi West 9.2 mph - N/A   Clear
8:35 AM 46.4 °F 40.7 °F 37.4 °F 71% 29.62 in 10.0 mi WNW 12.7 mph - N/A   Clear
8:55 AM 48.2 °F - 37.4 °F 66% 29.62 in 10.0 mi WNW 18.4 mph - N/A   Clear
9:15 AM 48.2 °F - 37.4 °F 66% 29.63 in 10.0 mi NW 17.3 mph 24.2 mph N/A   Clear
9:35 AM 46.4 °F 39.8 °F 37.4 °F 71% 29.65 in 10.0 mi WNW 16.1 mph - N/A   Partly Cloudy
9:55 AM 46.4 °F 41.1 °F 37.4 °F 71% 29.66 in 10.0 mi West 11.5 mph - N/A   Partly Cloudy
10:15 AM 46.4 °F 41.1 °F 37.4 °F 71% 29.67 in 10.0 mi WNW 11.5 mph - N/A   Clear
10:35 AM 48.2 °F - 39.2 °F 71% 29.68 in 10.0 mi NW 13.8 mph 19.6 mph N/A   Clear
10:55 AM 50.0 °F - 39.2 °F 66% 29.69 in 10.0 mi NW 17.3 mph - N/A   Clear
11:15 AM 50.0 °F - 39.2 °F 66% 29.70 in 10.0 mi NW 17.3 mph 23.0 mph N/A   Clear
11:35 AM 50.0 °F - 39.2 °F 66% 29.71 in 10.0 mi NNW 21.9 mph 28.8 mph N/A   Clear
11:55 AM 48.2 °F - 39.2 °F 71% 29.73 in 10.0 mi NW 17.3 mph 25.3 mph N/A   Clear
12:15 PM 50.0 °F - 42.8 °F 76% 29.73 in 10.0 mi WNW 13.8 mph - N/A   Clear
12:35 PM 50.0 °F - 42.8 °F 76% 29.74 in 10.0 mi WNW 17.3 mph - N/A   Clear
12:55 PM 48.2 °F - 41.0 °F 76% 29.75 in 10.0 mi WNW 17.3 mph - N/A   Clear
1:15 PM 48.2 °F - 42.8 °F 82% 29.76 in 10.0 mi WNW 18.4 mph - N/A   Clear
1:35 PM 48.2 °F - 42.8 °F 82% 29.76 in 10.0 mi WNW 13.8 mph - N/A   Clear
1:55 PM 50.0 °F - 41.0 °F 71% 29.78 in 10.0 mi WNW 15.0 mph - N/A   Clear
2:15 PM 51.8 °F - 41.0 °F 67% 29.78 in 10.0 mi WNW 16.1 mph - N/A   Clear
2:35 PM 53.6 °F - 37.4 °F 54% 29.79 in 10.0 mi WNW 12.7 mph - N/A   Clear
2:55 PM 53.6 °F - 37.4 °F 54% 29.80 in 10.0 mi WNW 15.0 mph - N/A   Clear
3:15 PM 53.6 °F - 37.4 °F 54% 29.80 in 10.0 mi WNW 12.7 mph - N/A   Clear
3:35 PM 55.4 °F - 37.4 °F 51% 29.80 in 10.0 mi WNW 12.7 mph - N/A   Clear
3:55 PM 53.6 °F - 37.4 °F 54% 29.81 in 10.0 mi WNW 16.1 mph 19.6 mph N/A   Clear
4:15 PM 53.6 °F - 39.2 °F 58% 29.82 in 10.0 mi WNW 16.1 mph 19.6 mph N/A   Clear
4:35 PM 53.6 °F - 37.4 °F 54% 29.82 in 10.0 mi NW 13.8 mph 19.6 mph N/A   Clear
4:55 PM 53.6 °F - 33.8 °F 47% 29.82 in 10.0 mi NW 17.3 mph 21.9 mph N/A   Clear
5:15 PM 53.6 °F - 37.4 °F 54% 29.82 in 10.0 mi WNW 12.7 mph - N/A   Clear
5:35 PM 51.8 °F - 37.4 °F 58% 29.82 in 10.0 mi WNW 15.0 mph - N/A   Clear
5:55 PM 51.8 °F - 37.4 °F 58% 29.83 in 10.0 mi WNW 15.0 mph - N/A   Clear
6:15 PM 51.8 °F - 35.6 °F 54% 29.83 in 10.0 mi NW 16.1 mph 19.6 mph N/A   Clear
6:35 PM 51.8 °F - 30.2 °F 44% 29.84 in 10.0 mi NW 13.8 mph 23.0 mph N/A   Clear
6:55 PM 51.8 °F - 32.0 °F 47% 29.84 in 10.0 mi WNW 13.8 mph - N/A   Clear
7:15 PM 50.0 °F - 30.2 °F 47% 29.84 in 10.0 mi WNW 11.5 mph - N/A   Clear
7:35 PM 48.2 °F - 28.4 °F 46% 29.84 in 10.0 mi NW 12.7 mph - N/A   Clear
7:55 PM 48.2 °F - 28.4 °F 46% 29.85 in 10.0 mi NW 10.4 mph - N/A   Clear
8:15 PM 46.4 °F 41.9 °F 30.2 °F 53% 29.85 in 10.0 mi NW 9.2 mph - N/A   Clear
8:35 PM 42.8 °F 38.0 °F 32.0 °F 66% 29.86 in 10.0 mi NW 8.1 mph - N/A   Clear
8:55 PM 41.0 °F 36.4 °F 33.8 °F 76% 29.86 in 10.0 mi NW 6.9 mph - N/A   Clear
9:15 PM 39.2 °F 35.9 °F 33.8 °F 81% 29.87 in 10.0 mi NW 4.6 mph - N/A   Clear
9:35 PM 39.2 °F 37.0 °F 33.8 °F 81% 29.88 in 10.0 mi WNW 3.5 mph - N/A   Clear
9:55 PM 39.2 °F 35.0 °F 35.6 °F 87% 29.88 in 10.0 mi WNW 5.8 mph - N/A   Clear
10:15 PM 37.4 °F 32.8 °F 32.0 °F 81% 29.89 in 10.0 mi NW 5.8 mph - N/A   Clear
10:35 PM 37.4 °F 32.8 °F 33.8 °F 87% 29.89 in 10.0 mi WNW 5.8 mph - N/A   Clear
10:55 PM 37.4 °F 32.1 °F 33.8 °F 87% 29.89 in 10.0 mi NW 6.9 mph - N/A   Clear
11:15 PM 35.6 °F 29.9 °F 30.2 °F 81% 29.89 in 10.0 mi NW 6.9 mph - N/A   Clear
11:35 PM 35.6 °F 29.9 °F 30.2 °F 81% 29.89 in 10.0 mi NW 6.9 mph - N/A   Clear
11:55 PM 35.6 °F 28.6 °F 30.2 °F 81% 29.88 in 10.0 mi NW 9.2 mph - N/A   Clear